Regional Weather Roundup
Issued by NWS Wilmington, NC

Home | Current Version | Previous Version | Text Only | Print | Product List | Glossary On
Versions: 1 2 3 4 5 6 7 8 9 10 11 12 13 14 15 16 17 18 19 20 21 22 23 24 25 26 27
000
ASUS42 KILM 301513
RWRILM
RWRILM
REGIONAL HOURLY WEATHER ROUNDUP
NATIONAL WEATHER SERVICE WILMINGTON NC
1100 AM EDT SAT JUL 30 2016

NOTE: "FAIR" INDICATES FEW OR NO CLOUDS BELOW 12,000 FEET WITH NO
SIGNIFICANT WEATHER AND/OR OBSTRUCTIONS TO VISIBILITY.

...............WFO WILMINGTON COUNTY WARNING AREA...............

......COASTAL NC AND SC COUNTIES......

CITY           SKY/WX    TMP DP  RH WIND       PRES   REMARKS
WILMINGTON     SUNNY     93  78  61 VRB7      29.99R HX 108
N MYRTLE BEACH SUNNY     93  73  52 NW7       30.00R HX 102
MYRTLE BEACH   SUNNY     93  72  49 W8        30.02R HX 100

......INLAND NC AND SC COUNTIES.......

CITY           SKY/WX    TMP DP  RH WIND       PRES   REMARKS
LUMBERTON      SUNNY     92  72  51 SW13      29.98S HX  99
ELIZABETHTOWN  SUNNY     91  75  59 S6        29.99S HX 101
WHITEVILLE     CLOUDY    89  76  65 SW3       29.99S HX 100
FLORENCE       SUNNY     90  73  57 W8        30.00S HX  98
DARLINGTON     SUNNY     89  76  65 W10       30.01R HX 100
KINGSTREE      FAIR      91  70  49 W9        30.01S HX  97
HARTSVILLE     FAIR      88  72  58 SW7       30.01S HX  94
BENNETTSVILLE  FAIR      90  75  62 SW8       29.99S HX 100
CONWAY         FAIR      90  73  58 W5        30.00S HX  98
GEORGETOWN     FAIR      91  73  55 W5        30.02S HX 100
MARION           N/A     91  72  52 SW9       30.00S HX  98

....................REST OF NORTH CAROLINA......................

.........EASTERN NC.........

CITY           SKY/WX    TMP DP  RH WIND       PRES   REMARKS
CAPE HATTERAS  CLOUDY    87  78  74 SE9       30.01R HX 100
JACKSONVILLE   SUNNY     92  76  59 S6        29.99S HX 104
MOREHEAD CITY  MOSUNNY   86  79  79 S5        30.00R HX  99
KENANSVILLE    NOT AVBL
NEW BERN       MOSUNNY   89  78  70 CALM      30.00S HX 103
ELIZABETH CITY SUNNY     88  72  58 MISG      30.00R HX  94

.........CENTRAL NC.........

CITY           SKY/WX    TMP DP  RH WIND       PRES   REMARKS
RALEIGH DURHAM CLOUDY    87  73  62 SW8       29.99S HX  94
ROCKY MOUNT    CLOUDY    84  78  82 S3        29.99R HX  95
ROANOKE RAPIDS NOT AVBL
FAYETTEVILLE   CLOUDY    92  72  51 SW12      29.98S HX  99
HOFFMAN        CLOUDY    88  72  57 SW10      29.99F HX  95

.........WESTERN NC.........

CITY           SKY/WX    TMP DP  RH WIND       PRES   REMARKS
CHARLOTTE      CLOUDY    83  71  67 CALM      30.04R
GREENSBORO     MOSUNNY   88  69  53 VRB7      30.01R HX  92
HICKORY        NOT AVBL
BOONE          NOT AVBL
ASHEVILLE      NOT AVBL

.....................REST OF SOUTH CAROLINA.....................

.........EASTERN SC.........

CITY           SKY/WX    TMP DP  RH WIND       PRES   REMARKS
CHARLESTON     MOSUNNY   93  73  52 VRB5      30.02S HX 102
BEAUFORT MCAS  SUNNY     93  72  50 CALM      30.03S HX 101
HILTON HEAD    SUNNY     97  72  44 W6        30.04S HX 105

.........CENTRAL SC.........

CITY           SKY/WX    TMP DP  RH WIND       PRES   REMARKS
COLUMBIA       MOSUNNY   94  70  45 VRB6      30.01S HX 100
ORANGEBURG     SUNNY     91  71  51 W5        30.03S HX  97
SUMTER SHAW    SUNNY     89  73  58 SW8       30.00S HAZE    HX  97

.........WESTERN SC.........

CITY           SKY/WX    TMP DP  RH WIND       PRES   REMARKS
GREENVILLE     NOT AVBL
ROCK HILL      CLOUDY    85  72  65 SW6       30.04R HX  91
ANDERSON       SUNNY     87  70  56 W8        30.04R HX  92
CLEMSON        NOT AVBL
GREENWOOD      SUNNY     88  69  53 SW9       30.05S HX  92


...................COASTAL AND OFFSHORE REPORTS..................

................LOCAL PIERS AND NC RESERVE................


STATION/POSITION TIME  SKY/WX   TEMP    WIND        PRES    VSBY
                                AIR SEA DIR/SP/G
                 (UTC)          (F)     (DEG/KT/KT) (MB)    (MI)
JOHNY MRCER PIER 1400            88 81  250/  3/  6 1014.5F
NC RESRV MASNBRO NOT AVBL
OCEAN CREST PIER NOT AVBL
SPRINGMAID  PIER 1400            90 83              1015.4R


................COASTAL AND OFFSHORE BUOYS................


STATION/POSITION TIME  SKY/WX   TEMP    WIND        PRES    VSBY
                                AIR SEA DIR/SP/G
                 (UTC)          (F)     (DEG/KT/KT) (MB)    (MI)
DIMNDSHOAL 41025 1450            85 86  160/  6/  8 1016.0R
WVE H/P(F/S)=  2/ 6 SWL H/P/D(F/S/D)=  2/210/ 6

CAPE LOOKOUT     1500            82     130/  5/  5 1015.6R
ONSLOW BAY 41036 NOT AVBL
ONSLOW BAY 41064 1408            85 85  250/  8/ 12 1015.7R
ONSLOW BAY 41159 1425               85                N/A
WVE H/P(F/S)=  3/ 6

5SE WRITBC 41038 1408            82 80  170/  4/  8 1016.5R
MASNBO INL 41110 1406               81                N/A
WVE H/P(F/S)=  2/ 5

WILM HARBR 41108 1426               85                N/A
WVE H/P(F/S)=  3/ 5

27SE WRITB 41037 1408            85 84  240/  8/ 10 1015.9R
FRYING PAN 41013 1500            85 85  220/ 10/ 12 1016.1R
SUNST NRSH 41024 1408            87 84  270/  4/  6 1015.4R
CAPRS NRSH 41029 1408            86 85  290/  6/  8 1016.3R
EDISTO     41004 1450            85 85  260/ 10/ 12 1016.3R
WVE H/P(F/S)=  4/ 6 SWL H/P/D(F/S/D)=  3/200/ 6



..........OFFSHORE BUOYS BEYOND 100 NM OFFSHORE...........
.....IN A TRIANGLE---HAT TO BERMUDA TO BAHAMAS TO HAT.....


STATION/POSITION TIME  SKY/WX   TEMP    WIND        PRES    VSBY
                                AIR SEA DIR/SP/G
                 (UTC)          (F)     (DEG/KT/KT) (MB)    (MI)
150E HAT   41001 NOT AVBL
W BERMUDA  41048 1450            84 85  200/ 14/ 16 1019.4R
WVE H/P(F/S)=  2/ 8 SWL H/P/D(F/S/D)=  2/140/ 8

ATLANTIC S 41049 1450            83 85  130/ 10/ 12 1023.3R
WVE H/P(F/S)=  4/ 8 SWL H/P/D(F/S/D)=  3/ 90/ 8

E BAHAMAS  41046 1500            84 85  110/ 16/ 19 1019.9S
NE BAHAMAS 41047 1500            84 85  140/ 12/ 16 1019.9R
120E CANVRL41010 1420            85 87  220/  4/  6 1018.8R

END




USA.gov is the U.S. government's official web portal to all federal, state and local government web resources and services.